time, Switch, Flow(0), Analog(2)
yyyy/mm/dd HH:MM:SS.fff, True=FILTERED|False=TOTAL, L/min, V
2023/06/26 11:00:02.163, True, 4.306, 0.125658
2023/06/26 11:00:02.659, True, 4.388, 0.127031
2023/06/26 11:00:03.162, True, 4.306, 0.126497
2023/06/26 11:00:03.667, True, 3.645, 0.125124
2023/06/26 11:00:04.171, True, 2.986, 0.125963
2023/06/26 11:00:04.667, True, 2.022, 0.128176
2023/06/26 11:00:05.171, True, 1.992, 0.127565
2023/06/26 11:00:05.674, True, 1.989, 0.125505
2023/06/26 11:00:06.170, True, 1.685, 0.124514
2023/06/26 11:00:06.674, True, 1.988, 0.125277
2023/06/26 11:00:07.178, True, 1.989, 0.124666
2023/06/26 11:00:07.683, True, 1.659, 0.125200
2023/06/26 11:00:08.178, True, 1.683, 0.125505
2023/06/26 11:00:08.682, True, 1.992, 0.125887
2023/06/26 11:00:09.179, True, 2.019, 0.126192
2023/06/26 11:00:09.682, True, 1.993, 0.125277
2023/06/26 11:00:10.186, True, 1.655, 0.125887
2023/06/26 11:00:10.683, True, 2.022, 0.125277
2023/06/26 11:00:11.187, True, 1.992, 0.129473
2023/06/26 11:00:11.690, True, 1.989, 0.126421
2023/06/26 11:00:12.187, True, 2.020, 0.122148
2023/06/26 11:00:12.690, True, 1.991, 0.124361
2023/06/26 11:00:13.187, True, 2.023, 0.123751
2023/06/26 11:00:13.691, True, 1.655, 0.123827
2023/06/26 11:00:14.194, True, 1.989, 0.125048
2023/06/26 11:00:14.691, True, 1.686, 0.123903
2023/06/26 11:00:15.194, True, 1.990, 0.125200
2023/06/26 11:00:15.698, True, 1.656, 0.126574
2023/06/26 11:00:16.202, True, 1.993, 0.127337
2023/06/26 11:00:16.698, True, 1.683, 0.126116
2023/06/26 11:00:17.203, True, 1.989, 0.125505
2023/06/26 11:00:17.706, True, 1.992, 0.124437
2023/06/26 11:00:18.211, True, 1.656, 0.125887
2023/06/26 11:00:18.706, True, 2.024, 0.126574
2023/06/26 11:00:19.210, True, 1.988, 0.126802
2023/06/26 11:00:19.714, True, 1.657, 0.127031
2023/06/26 11:00:20.211, True, 1.685, 0.126421
2023/06/26 11:00:20.714, True, 1.660, 0.124743
2023/06/26 11:00:21.219, True, 1.989, 0.125658
2023/06/26 11:00:21.715, True, 1.684, 0.126421
2023/06/26 11:00:22.219, True, 1.989, 0.127337
2023/06/26 11:00:22.722, True, 1.992, 0.123445
2023/06/26 11:00:23.219, True, 1.684, 0.125811
2023/06/26 11:00:23.722, True, 1.991, 0.125887
2023/06/26 11:00:24.227, True, 1.656, 0.123445
2023/06/26 11:00:24.722, True, 2.022, 0.125277
2023/06/26 11:00:25.227, True, 1.658, 0.125429
2023/06/26 11:00:25.730, True, 1.659, 0.126955
2023/06/26 11:00:26.227, True, 1.686, 0.127718
2023/06/26 11:00:26.731, True, 1.989, 0.124743
2023/06/26 11:00:27.234, True, 1.658, 0.123217
2023/06/26 11:00:27.738, True, 1.989, 0.125811
2023/06/26 11:00:28.234, True, 1.685, 0.126116
2023/06/26 11:00:28.739, True, 1.989, 0.126574
2023/06/26 11:00:29.242, True, 1.988, 0.125048
2023/06/26 11:00:29.738, True, 1.683, 0.126192
2023/06/26 11:00:30.243, True, 1.992, 0.125505
2023/06/26 11:00:30.747, True, 1.991, 0.125277
2023/06/26 11:00:31.242, True, 1.682, 0.124437
2023/06/26 11:00:31.747, True, 1.993, 0.122530
2023/06/26 11:00:32.250, True, 1.987, 0.125582
2023/06/26 11:00:32.747, True, 1.685, 0.126879
2023/06/26 11:00:33.251, True, 1.657, 0.125353
2023/06/26 11:00:33.755, True, 1.990, 0.124819
2023/06/26 11:00:34.258, True, 1.990, 0.124743
2023/06/26 11:00:34.755, True, 2.021, 0.128099
2023/06/26 11:00:35.258, True, 1.660, 0.126345
2023/06/26 11:00:35.763, True, 1.988, 0.125582
2023/06/26 11:00:36.259, True, 1.684, 0.126497
2023/06/26 11:00:36.763, True, 1.992, 0.125353
2023/06/26 11:00:37.267, True, 1.987, 0.126879
2023/06/26 11:00:37.763, True, 2.025, 0.127413
2023/06/26 11:00:38.266, True, 1.655, 0.127794
2023/06/26 11:00:38.770, True, 1.658, 0.129702
2023/06/26 11:00:39.266, True, 2.022, 0.125277
2023/06/26 11:00:39.771, True, 1.660, 0.129778
2023/06/26 11:00:40.274, True, 1.658, 0.129854
2023/06/26 11:00:40.778, True, 1.987, 0.128023
2023/06/26 11:00:41.275, True, 2.023, 0.129397
2023/06/26 11:00:41.779, True, 1.659, 0.130694
2023/06/26 11:00:42.282, True, 1.988, 0.129854
2023/06/26 11:00:42.787, True, 1.657, 0.130999
2023/06/26 11:00:43.283, True, 2.023, 0.133135
2023/06/26 11:00:43.786, True, 1.660, 0.130617
2023/06/26 11:00:44.291, True, 1.657, 0.130694
2023/06/26 11:00:44.786, True, 2.022, 0.133288
2023/06/26 11:00:45.290, True, 1.990, 0.131991
2023/06/26 11:00:45.795, True, 1.658, 0.130541
2023/06/26 11:00:46.291, True, 2.023, 0.130083
2023/06/26 11:00:46.794, True, 1.988, 0.133364
2023/06/26 11:00:47.299, True, 1.657, 0.132448
2023/06/26 11:00:47.795, True, 2.022, 0.130083
2023/06/26 11:00:48.298, True, 1.990, 0.132219
2023/06/26 11:00:48.802, True, 1.657, 0.134356
2023/06/26 11:00:49.298, True, 2.024, 0.129854
2023/06/26 11:00:49.802, True, 1.989, 0.132219
2023/06/26 11:00:50.306, True, 1.657, 0.131685
2023/06/26 11:00:50.803, True, 2.025, 0.133516
2023/06/26 11:00:51.307, True, 1.656, 0.133364
2023/06/26 11:00:51.810, True, 1.991, 0.135119
2023/06/26 11:00:52.307, True, 2.019, 0.134508
2023/06/26 11:00:52.811, True, 1.658, 0.134813
2023/06/26 11:00:53.315, True, 1.991, 0.135805
2023/06/26 11:00:53.818, True, 1.991, 0.134737
2023/06/26 11:00:54.314, True, 1.683, 0.135958
2023/06/26 11:00:54.819, True, 1.990, 0.135653
2023/06/26 11:00:55.323, True, 1.658, 0.135348
2023/06/26 11:00:55.819, True, 1.685, 0.134356
2023/06/26 11:00:56.322, True, 1.989, 0.136645
2023/06/26 11:00:56.826, True, 1.659, 0.135576
2023/06/26 11:00:57.322, True, 1.685, 0.133516
2023/06/26 11:00:57.827, True, 1.988, 0.134737
2023/06/26 11:00:58.330, True, 1.991, 0.136187
2023/06/26 11:00:58.827, True, 1.683, 0.136950
2023/06/26 11:00:59.330, True, 1.990, 0.136187
2023/06/26 11:00:59.834, True, 1.659, 0.135119
2023/06/26 11:01:00.331, True, 2.020, 0.136721
2023/06/26 11:01:00.834, True, 1.660, 0.136721
2023/06/26 11:01:01.339, True, 1.989, 0.134508
2023/06/26 11:01:01.843, True, 1.657, 0.134966
2023/06/26 11:01:02.339, True, 1.684, 0.134432
2023/06/26 11:01:02.842, True, 1.990, 0.132677
2023/06/26 11:01:03.338, True, 1.685, 0.136034
2023/06/26 11:01:03.843, True, 1.990, 0.137560
2023/06/26 11:01:04.346, True, 1.657, 0.135958
2023/06/26 11:01:04.851, True, 1.658, 0.137255
2023/06/26 11:01:05.346, True, 2.024, 0.134203
2023/06/26 11:01:05.850, True, 1.659, 0.137484
2023/06/26 11:01:06.355, True, 1.656, 0.138323
2023/06/26 11:01:06.859, True, 1.989, 0.134585
2023/06/26 11:01:07.354, True, 1.686, 0.136187
2023/06/26 11:01:07.859, True, 1.988, 0.137026
2023/06/26 11:01:08.362, True, 1.657, 0.134127
2023/06/26 11:01:08.858, True, 2.023, 0.135882
2023/06/26 11:01:09.362, True, 1.989, 0.135424
2023/06/26 11:01:09.866, True, 1.659, 0.136339
2023/06/26 11:01:10.363, True, 2.021, 0.135195
2023/06/26 11:01:10.866, True, 1.990, 0.135195
2023/06/26 11:01:11.370, True, 1.991, 0.137942
2023/06/26 11:01:11.867, True, 1.685, 0.136492
2023/06/26 11:01:12.370, True, 1.989, 0.137102
2023/06/26 11:01:12.874, True, 1.988, 0.135958
2023/06/26 11:01:13.379, True, 1.988, 0.138476
2023/06/26 11:01:13.874, True, 1.687, 0.135805
2023/06/26 11:01:14.379, True, 1.988, 0.138552
2023/06/26 11:01:14.882, True, 1.989, 0.135271
2023/06/26 11:01:15.378, True, 2.022, 0.132982
2023/06/26 11:01:15.882, True, 1.660, 0.136339
2023/06/26 11:01:16.386, True, 1.989, 0.136492
2023/06/26 11:01:16.890, True, 1.656, 0.136263
2023/06/26 11:01:17.387, True, 2.025, 0.135119
2023/06/26 11:01:17.890, True, 1.659, 0.136034
2023/06/26 11:01:18.394, True, 1.987, 0.137331
2023/06/26 11:01:18.891, True, 1.684, 0.135348
2023/06/26 11:01:19.394, True, 1.993, 0.136416
2023/06/26 11:01:19.899, True, 1.658, 0.136492
2023/06/26 11:01:20.395, True, 2.018, 0.133822
2023/06/26 11:01:20.898, True, 1.660, 0.135042
2023/06/26 11:01:21.395, True, 1.683, 0.137255
2023/06/26 11:01:21.899, True, 1.988, 0.137484
2023/06/26 11:01:22.403, True, 1.992, 0.137942
2023/06/26 11:01:22.906, True, 1.990, 0.135729
2023/06/26 11:01:23.403, True, 1.684, 0.136110
2023/06/26 11:01:23.907, True, 1.988, 0.138018
2023/06/26 11:01:24.410, True, 1.990, 0.135424
2023/06/26 11:01:24.906, True, 1.684, 0.135042
2023/06/26 11:01:25.410, True, 1.991, 0.136873
2023/06/26 11:01:25.914, True, 1.988, 0.134661
2023/06/26 11:01:26.411, True, 1.688, 0.137865
2023/06/26 11:01:26.914, True, 1.988, 0.136873
2023/06/26 11:01:27.418, True, 1.988, 0.139010
2023/06/26 11:01:27.914, True, 1.686, 0.132677
2023/06/26 11:01:28.419, True, 1.659, 0.136034
2023/06/26 11:01:28.922, True, 1.987, 0.135576
2023/06/26 11:01:29.418, True, 1.684, 0.134966
2023/06/26 11:01:29.922, True, 1.660, 0.136797
2023/06/26 11:01:30.426, True, 1.989, 0.137179
2023/06/26 11:01:30.930, True, 1.658, 0.135958
2023/06/26 11:01:31.426, True, 2.022, 0.136568
2023/06/26 11:01:31.930, True, 1.657, 0.134661
2023/06/26 11:01:32.435, True, 1.992, 0.133516
2023/06/26 11:01:32.938, True, 1.987, 0.136873
2023/06/26 11:01:33.434, True, 1.688, 0.135805
2023/06/26 11:01:33.938, True, 1.989, 0.135424
2023/06/26 11:01:34.442, True, 1.656, 0.136492
2023/06/26 11:01:34.946, True, 1.990, 0.137636
2023/06/26 11:01:35.442, True, 2.021, 0.135576
2023/06/26 11:01:35.946, True, 1.659, 0.136416
2023/06/26 11:01:36.450, True, 1.992, 0.134813
2023/06/26 11:01:36.947, True, 2.020, 0.137102
2023/06/26 11:01:37.450, True, 1.989, 0.136568
2023/06/26 11:01:37.955, True, 1.992, 0.137484
2023/06/26 11:01:38.450, True, 1.684, 0.134890
2023/06/26 11:01:38.954, True, 1.986, 0.136187
2023/06/26 11:01:39.458, True, 1.991, 0.136339
2023/06/26 11:01:39.954, True, 1.685, 0.134966
2023/06/26 11:01:40.458, True, 1.989, 0.134203
2023/06/26 11:01:40.963, True, 1.989, 0.136568
2023/06/26 11:01:41.458, True, 1.687, 0.133440
2023/06/26 11:01:41.963, True, 1.657, 0.134737
2023/06/26 11:01:42.467, True, 1.990, 0.136339
2023/06/26 11:01:42.962, True, 1.685, 0.135729
2023/06/26 11:01:43.466, True, 1.988, 0.136416
2023/06/26 11:01:43.970, True, 1.658, 0.134051
2023/06/26 11:01:44.467, True, 2.023, 0.134890
2023/06/26 11:01:44.970, True, 1.658, 0.135042
2023/06/26 11:01:45.475, True, 1.991, 0.135958
2023/06/26 11:01:45.971, True, 1.683, 0.134737
2023/06/26 11:01:46.474, True, 1.989, 0.135500
2023/06/26 11:01:46.978, True, 1.991, 0.135424
2023/06/26 11:01:47.483, True, 1.988, 0.133822
2023/06/26 11:01:47.978, True, 1.686, 0.135271
2023/06/26 11:01:48.482, True, 1.990, 0.135042
2023/06/26 11:01:48.986, True, 1.990, 0.136187
2023/06/26 11:01:49.482, True, 2.019, 0.136416
2023/06/26 11:01:49.986, True, 1.991, 0.135882
2023/06/26 11:01:50.491, True, 1.657, 0.134661
2023/06/26 11:01:50.994, True, 1.992, 0.134966
2023/06/26 11:01:51.491, True, 2.023, 0.136187
2023/06/26 11:01:51.994, True, 1.655, 0.134966
2023/06/26 11:01:52.498, True, 1.993, 0.135271
2023/06/26 11:01:52.995, True, 2.022, 0.134279
2023/06/26 11:01:53.498, True, 1.656, 0.133593
2023/06/26 11:01:54.002, True, 1.992, 0.133669
2023/06/26 11:01:54.507, True, 1.658, 0.132906
2023/06/26 11:01:55.010, True, 1.657, 0.132982
2023/06/26 11:01:55.506, True, 1.685, 0.136873
2023/06/26 11:01:56.010, True, 1.656, 0.133822
2023/06/26 11:01:56.515, True, 1.993, 0.136110
2023/06/26 11:01:57.010, True, 1.682, 0.133288
2023/06/26 11:01:57.515, True, 1.993, 0.135119
2023/06/26 11:01:58.018, True, 1.655, 0.135729
2023/06/26 11:01:58.514, True, 2.023, 0.135882
2023/06/26 11:01:59.018, True, 1.658, 0.134356
2023/06/26 11:01:59.522, True, 1.990, 0.135805
2023/06/26 11:02:00.026, True, 1.656, 0.135119
2023/06/26 11:02:00.522, True, 1.687, 0.134890
2023/06/26 11:02:01.026, True, 1.989, 0.134966
2023/06/26 11:02:01.530, True, 1.987, 0.135729
2023/06/26 11:02:02.027, True, 2.025, 0.132830
2023/06/26 11:02:02.530, True, 1.656, 0.133135
2023/06/26 11:02:03.034, True, 1.991, 0.134585
2023/06/26 11:02:03.538, True, 1.987, 0.134508
2023/06/26 11:02:04.034, True, 2.022, 0.134585
2023/06/26 11:02:04.538, True, 1.989, 0.133288
2023/06/26 11:02:05.034, True, 2.022, 0.133059
2023/06/26 11:02:05.539, True, 1.989, 0.133059
2023/06/26 11:02:06.042, True, 1.658, 0.133593
2023/06/26 11:02:06.539, True, 1.684, 0.133516
2023/06/26 11:02:07.042, True, 1.990, 0.133288
2023/06/26 11:02:07.547, True, 1.993, 0.134356
2023/06/26 11:02:08.043, True, 1.685, 0.134661
2023/06/26 11:02:08.547, True, 1.658, 0.132067
2023/06/26 11:02:09.050, True, 1.987, 0.135653
2023/06/26 11:02:09.554, True, 1.659, 0.133974
2023/06/26 11:02:10.050, True, 1.684, 0.132601
2023/06/26 11:02:10.554, True, 1.991, 0.133974
2023/06/26 11:02:11.058, True, 1.659, 0.134051
2023/06/26 11:02:11.554, True, 2.019, 0.133516
2023/06/26 11:02:12.058, True, 1.659, 0.134813
2023/06/26 11:02:12.563, True, 1.990, 0.132296
2023/06/26 11:02:13.058, True, 1.686, 0.133288
2023/06/26 11:02:13.562, True, 1.988, 0.133288
2023/06/26 11:02:14.059, True, 1.683, 0.134890
2023/06/26 11:02:14.563, True, 1.991, 0.133135
2023/06/26 11:02:15.066, True, 1.989, 0.132906
2023/06/26 11:02:15.562, True, 1.686, 0.130999
2023/06/26 11:02:16.066, True, 1.989, 0.134051
2023/06/26 11:02:16.570, True, 1.658, 0.133898
2023/06/26 11:02:17.066, True, 2.025, 0.132830
2023/06/26 11:02:17.571, True, 1.656, 0.133135
2023/06/26 11:02:18.074, True, 1.990, 0.131838
2023/06/26 11:02:18.571, True, 1.685, 0.134279
2023/06/26 11:02:19.074, True, 1.990, 0.132448
2023/06/26 11:02:19.578, True, 1.991, 0.132067
2023/06/26 11:02:20.074, True, 1.683, 0.133059
2023/06/26 11:02:20.579, True, 1.993, 0.133898
2023/06/26 11:02:21.082, True, 1.986, 0.131991
2023/06/26 11:02:21.587, True, 1.658, 0.134203
2023/06/26 11:02:22.082, True, 2.021, 0.133135
2023/06/26 11:02:22.587, True, 1.992, 0.131991
2023/06/26 11:02:23.090, True, 1.658, 0.130236
2023/06/26 11:02:23.586, True, 2.023, 0.134203
2023/06/26 11:02:24.090, True, 1.988, 0.132677
2023/06/26 11:02:24.594, True, 1.990, 0.132982
2023/06/26 11:02:25.091, True, 1.687, 0.134127
2023/06/26 11:02:25.594, True, 1.987, 0.134890
2023/06/26 11:02:26.098, True, 1.990, 0.134585
2023/06/26 11:02:26.594, True, 2.023, 0.132982
2023/06/26 11:02:27.098, True, 1.659, 0.132601
2023/06/26 11:02:27.602, True, 1.655, 0.134203
2023/06/26 11:02:28.106, True, 1.989, 0.133593
2023/06/26 11:02:28.602, True, 2.024, 0.133364
2023/06/26 11:02:29.106, True, 1.656, 0.131304
2023/06/26 11:02:29.611, True, 1.993, 0.130999
2023/06/26 11:02:30.107, True, 1.685, 0.132677
2023/06/26 11:02:30.610, True, 1.656, 0.133822
2023/06/26 11:02:31.114, True, 1.658, 0.134508
2023/06/26 11:02:31.610, True, 2.022, 0.135958
2023/06/26 11:02:32.114, True, 1.660, 0.134432
2023/06/26 11:02:32.619, True, 1.657, 0.132448
2023/06/26 11:02:33.122, True, 1.987, 0.131228
2023/06/26 11:02:33.618, True, 1.686, 0.132525
2023/06/26 11:02:34.122, True, 1.993, 0.131685
2023/06/26 11:02:34.627, True, 1.658, 0.132906
2023/06/26 11:02:35.122, True, 2.019, 0.133974
2023/06/26 11:02:35.626, True, 1.989, 0.134661
2023/06/26 11:02:36.130, True, 1.990, 0.131762
2023/06/26 11:02:36.626, True, 1.687, 0.131380
2023/06/26 11:02:37.130, True, 1.987, 0.134661
2023/06/26 11:02:37.634, True, 1.658, 0.134356
2023/06/26 11:02:38.138, True, 1.994, 0.130388
2023/06/26 11:02:38.634, True, 1.682, 0.131533
2023/06/26 11:02:39.139, True, 1.989, 0.131838
2023/06/26 11:02:39.643, True, 1.659, 0.131762
2023/06/26 11:02:40.138, True, 2.023, 0.135805
2023/06/26 11:02:40.643, True, 1.991, 0.133211
2023/06/26 11:02:41.147, True, 1.656, 0.133669
2023/06/26 11:02:41.642, True, 2.025, 0.129549
2023/06/26 11:02:42.146, True, 1.986, 0.132296
2023/06/26 11:02:42.650, True, 1.660, 0.132525
2023/06/26 11:02:43.146, True, 2.020, 0.129702
2023/06/26 11:02:43.650, True, 1.992, 0.134279
2023/06/26 11:02:44.154, True, 1.658, 0.132143
2023/06/26 11:02:44.650, True, 2.021, 0.132296
2023/06/26 11:02:45.154, True, 1.990, 0.132448
2023/06/26 11:02:45.658, True, 1.657, 0.132601
2023/06/26 11:02:46.154, True, 2.022, 0.133059
2023/06/26 11:02:46.658, True, 1.992, 0.130617
2023/06/26 11:02:47.162, True, 1.990, 0.131609
2023/06/26 11:02:47.658, True, 1.682, 0.130770
2023/06/26 11:02:48.162, True, 1.990, 0.132753
2023/06/26 11:02:48.666, True, 1.992, 0.133516
2023/06/26 11:02:49.163, True, 2.018, 0.130999
2023/06/26 11:02:49.667, True, 1.658, 0.132982
2023/06/26 11:02:50.170, True, 1.993, 0.133974
2023/06/26 11:02:50.675, True, 1.988, 0.133974
2023/06/26 11:02:51.170, True, 1.684, 0.131685
2023/06/26 11:02:51.674, True, 1.659, 0.130999
2023/06/26 11:02:52.171, True, 2.024, 0.132601
2023/06/26 11:02:52.674, True, 1.656, 0.130007
2023/06/26 11:02:53.177, True, 1.992, 0.130770
2023/06/26 11:02:53.682, True, 1.656, 0.130999
2023/06/26 11:02:54.178, True, 2.023, 0.128939
2023/06/26 11:02:54.682, True, 1.990, 0.130236
2023/06/26 11:02:55.186, True, 1.657, 0.133364
2023/06/26 11:02:55.682, True, 2.023, 0.130770
2023/06/26 11:02:56.186, True, 1.658, 0.130770
2023/06/26 11:02:56.690, True, 1.989, 0.131762
2023/06/26 11:02:57.194, True, 1.991, 0.132448
2023/06/26 11:02:57.690, True, 2.020, 0.133059
2023/06/26 11:02:58.195, True, 1.656, 0.131838
2023/06/26 11:02:58.698, True, 1.989, 0.130617
2023/06/26 11:02:59.194, True, 2.024, 0.131838
2023/06/26 11:02:59.698, True, 1.656, 0.131685
2023/06/26 11:03:00.202, True, 1.991, 0.131151
2023/06/26 11:03:00.698, True, 1.684, 0.131914
2023/06/26 11:03:01.202, True, 1.991, 0.130846
2023/06/26 11:03:01.706, True, 1.991, 0.129244
2023/06/26 11:03:02.210, True, 1.658, 0.131228
2023/06/26 11:03:02.706, True, 1.683, 0.130617
2023/06/26 11:03:03.210, True, 1.991, 0.130159
2023/06/26 11:03:03.714, True, 1.990, 0.130617
2023/06/26 11:03:04.210, True, 1.687, 0.127871
2023/06/26 11:03:04.714, True, 1.989, 0.130465
2023/06/26 11:03:05.218, True, 1.991, 0.130846
2023/06/26 11:03:05.722, True, 1.988, 0.132601
2023/06/26 11:03:06.218, True, 1.684, 0.131685
2023/06/26 11:03:06.722, True, 1.988, 0.130159
2023/06/26 11:03:07.226, True, 1.990, 0.131304
2023/06/26 11:03:07.722, True, 1.686, 0.130846
2023/06/26 11:03:08.226, True, 1.991, 0.130999
2023/06/26 11:03:08.730, True, 1.990, 0.129625
2023/06/26 11:03:09.234, True, 1.986, 0.130770
2023/06/26 11:03:09.730, True, 1.686, 0.130159
2023/06/26 11:03:10.234, True, 1.990, 0.131685
2023/06/26 11:03:10.738, True, 1.657, 0.131685
2023/06/26 11:03:11.233, True, 2.024, 0.130541
2023/06/26 11:03:11.738, True, 1.658, 0.130922
2023/06/26 11:03:12.242, True, 1.656, 0.130388
2023/06/26 11:03:12.738, True, 2.022, 0.132753
2023/06/26 11:03:13.242, True, 1.990, 0.134127
2023/06/26 11:03:13.746, True, 1.658, 0.130007
2023/06/26 11:03:14.250, True, 1.991, 0.131991
2023/06/26 11:03:14.746, True, 2.020, 0.130770
2023/06/26 11:03:15.250, True, 1.658, 0.129473
2023/06/26 11:03:15.746, True, 1.684, 0.130159
2023/06/26 11:03:16.250, True, 1.661, 0.130312
2023/06/26 11:03:16.754, True, 1.988, 0.131075
2023/06/26 11:03:17.250, True, 2.023, 0.129549
2023/06/26 11:03:17.754, True, 1.656, 0.131838
2023/06/26 11:03:18.258, True, 1.661, 0.131304
2023/06/26 11:03:18.753, True, 2.022, 0.133440
2023/06/26 11:03:19.258, True, 1.989, 0.129625
2023/06/26 11:03:19.762, True, 1.656, 0.130999
2023/06/26 11:03:20.266, True, 1.988, 0.130846
2023/06/26 11:03:20.762, True, 2.025, 0.129625
2023/06/26 11:03:21.266, True, 1.655, 0.131380
2023/06/26 11:03:21.770, True, 1.991, 0.130694
2023/06/26 11:03:22.266, True, 2.023, 0.130694
2023/06/26 11:03:22.770, True, 1.988, 0.129168
2023/06/26 11:03:23.274, True, 1.657, 0.131228
2023/06/26 11:03:23.778, True, 1.991, 0.131685
2023/06/26 11:03:24.274, True, 2.021, 0.131456
2023/06/26 11:03:24.778, True, 1.658, 0.131456
2023/06/26 11:03:25.274, True, 2.025, 0.130312
2023/06/26 11:03:25.778, True, 1.658, 0.129931
2023/06/26 11:03:26.282, True, 1.987, 0.129091
2023/06/26 11:03:26.786, True, 1.992, 0.130770
2023/06/26 11:03:27.282, True, 1.684, 0.130388
2023/06/26 11:03:27.786, True, 1.988, 0.128023
2023/06/26 11:03:28.290, True, 1.990, 0.129549
2023/06/26 11:03:28.786, True, 1.685, 0.128862
2023/06/26 11:03:29.290, True, 1.993, 0.130770
2023/06/26 11:03:29.794, True, 1.987, 0.130312
2023/06/26 11:03:30.290, True, 1.684, 0.130694
2023/06/26 11:03:30.794, True, 1.990, 0.129473
2023/06/26 11:03:31.298, True, 1.659, 0.130770
2023/06/26 11:03:31.794, True, 2.019, 0.131228
2023/06/26 11:03:32.298, True, 1.659, 0.129702
2023/06/26 11:03:32.802, True, 1.657, 0.131456
2023/06/26 11:03:33.306, True, 1.992, 0.130541
2023/06/26 11:03:33.802, True, 1.683, 0.130770
2023/06/26 11:03:34.306, True, 1.992, 0.129931
2023/06/26 11:03:34.810, True, 1.658, 0.131380
2023/06/26 11:03:35.306, True, 2.019, 0.130922
2023/06/26 11:03:35.810, True, 1.991, 0.129778
2023/06/26 11:03:36.314, True, 1.657, 0.130694
2023/06/26 11:03:36.810, True, 2.021, 0.130999
2023/06/26 11:03:37.314, True, 1.657, 0.129625
2023/06/26 11:03:37.818, True, 1.992, 0.131304
2023/06/26 11:03:38.314, True, 2.022, 0.129854
2023/06/26 11:03:38.818, True, 1.657, 0.129854
2023/06/26 11:03:39.322, True, 1.988, 0.130083
2023/06/26 11:03:39.817, True, 2.021, 0.129244
2023/06/26 11:03:40.322, True, 1.990, 0.131304
2023/06/26 11:03:40.826, True, 1.990, 0.131685
2023/06/26 11:03:41.322, True, 2.021, 0.129168
2023/06/26 11:03:41.826, True, 1.659, 0.127794
2023/06/26 11:03:42.330, True, 1.988, 0.129854
2023/06/26 11:03:42.826, True, 2.022, 0.131609
2023/06/26 11:03:43.330, True, 1.658, 0.129549
2023/06/26 11:03:43.834, True, 1.993, 0.129091
2023/06/26 11:03:44.338, True, 1.989, 0.130388
2023/06/26 11:03:44.833, True, 1.683, 0.131228
2023/06/26 11:03:45.338, True, 1.990, 0.129702
2023/06/26 11:03:45.842, True, 1.658, 0.130541
2023/06/26 11:03:46.338, True, 2.021, 0.130312
2023/06/26 11:03:46.842, True, 1.659, 0.129778
2023/06/26 11:03:47.346, True, 1.989, 0.130312
2023/06/26 11:03:47.850, True, 1.659, 0.129320
2023/06/26 11:03:48.346, True, 2.021, 0.129015
2023/06/26 11:03:48.850, True, 1.657, 0.130159
2023/06/26 11:03:49.354, True, 1.991, 0.129549
2023/06/26 11:03:49.858, True, 1.657, 0.130312
2023/06/26 11:03:50.354, True, 2.022, 0.130770
2023/06/26 11:03:50.858, True, 1.657, 0.128939
2023/06/26 11:03:51.362, True, 1.990, 0.127718
2023/06/26 11:03:51.858, True, 2.021, 0.130541
2023/06/26 11:03:52.362, True, 1.993, 0.130007
2023/06/26 11:03:52.866, True, 1.987, 0.130236
2023/06/26 11:03:53.362, True, 2.022, 0.131151
2023/06/26 11:03:53.866, True, 1.659, 0.128099
2023/06/26 11:03:54.370, True, 1.991, 0.129549
2023/06/26 11:03:54.866, True, 1.683, 0.130083
2023/06/26 11:03:55.370, True, 1.989, 0.127642
2023/06/26 11:03:55.874, True, 1.991, 0.130617
2023/06/26 11:03:56.370, True, 1.686, 0.129778
2023/06/26 11:03:56.874, True, 1.990, 0.130694
2023/06/26 11:03:57.378, True, 1.989, 0.128557
2023/06/26 11:03:57.882, True, 1.987, 0.128023
2023/06/26 11:03:58.378, True, 1.686, 0.129168
2023/06/26 11:03:58.881, True, 1.991, 0.129320
2023/06/26 11:03:59.386, True, 1.990, 0.130236
2023/06/26 11:03:59.882, True, 1.683, 0.130465
2023/06/26 11:04:00.386, True, 1.988, 0.129854
2023/06/26 11:04:00.890, True, 1.990, 0.131685
2023/06/26 11:04:01.386, True, 2.024, 0.129549
2023/06/26 11:04:01.890, True, 1.658, 0.130846
2023/06/26 11:04:02.394, True, 1.986, 0.132601
2023/06/26 11:04:02.889, True, 1.687, 0.127794
2023/06/26 11:04:03.394, True, 1.988, 0.127260
2023/06/26 11:04:03.898, True, 1.990, 0.129931
2023/06/26 11:04:04.394, True, 1.684, 0.128939
2023/06/26 11:04:04.898, True, 1.991, 0.128405
2023/06/26 11:04:05.402, True, 1.988, 0.130388
2023/06/26 11:04:05.906, True, 1.991, 0.128252
2023/06/26 11:04:06.402, True, 2.024, 0.128557
2023/06/26 11:04:06.906, True, 1.658, 0.130007
2023/06/26 11:04:07.410, True, 1.987, 0.131685
2023/06/26 11:04:07.905, True, 1.686, 0.129320
2023/06/26 11:04:08.410, True, 1.989, 0.130236
2023/06/26 11:04:08.914, True, 1.659, 0.129397
2023/06/26 11:04:09.410, True, 2.022, 0.128710
2023/06/26 11:04:09.914, True, 1.990, 0.131380
2023/06/26 11:04:10.418, True, 1.989, 0.131228
2023/06/26 11:04:10.913, True, 1.683, 0.128710
2023/06/26 11:04:11.418, True, 1.992, 0.128710